PulseSat

PulseSat

COSMOS 2426 (717)

Last updated on Jan. 18, 2019, 3 a.m. UTC

1 29671U 06062B   19017.12083418  .00000006  00000-0  10000-3 0  9994
2 29671  65.1938 285.4056 0016342 165.5498  85.1083  2.13103111 93878
UTC
Height (km)
Latitude
Longitude
Inclination
Orbital Period

Next 30 passes for location: Hong Kong

Rise time Rise Azimuth (degrees) Set time Set Azimuth (degrees) Duration Max altitude (degrees)

No matching passes for this satellites

PulseSat

PulseSat is the new satellites software and hardware trackering solution by Pulsely.
Satellite Two Line Element Set source: US Air Force Space Command

Download PulseSat for iOS
© 2017 Pulsely Limited